Weather History for LEPA - December, 2013

Change the Weather History Date:

Sunday, December 29, 2013

  Actual Average Record
Temperature  
Mean Temperature 48 °F -  
Max Temperature 57 °F 57 °F 64 °F (2006)
Min Temperature 37 °F 39 °F 26 °F (2005)
Degree Days  
Heating Degree Days 17    
Moisture  
Dew Point 39 °F    
Average Humidity 74    
Maximum Humidity 93    
Minimum Humidity 38    
Precipitation  
Precipitation 0.00 in 0.05 in - ()
Sea Level Pressure  
Sea Level Pressure 30.24 in    
Wind  
Wind Speed 3 mph ()    
Max Wind Speed 15 mph    
Max Gust Speed 25 mph    
Visibility 7.0 miles    
Events      
Averages and records for this station are not official NWS values.
T = Trace of Precipitation, MM = Missing Value Source: Averaged Metar Reports

Daily Weather History Graph

Daily Weather History Graph

Search for Another Location

Airport or City:

Trip Planner

Search our weather history database for the weather conditions in past years. The results will help you decide how hot, cold, wet, or windy it might be!

Date:

Astronomy

Dec. 29, 2013 Rise Set
Actual Time 8:09 AM CET 5:33 PM CET
Civil Twilight 7:38 AM CET 6:03 PM CET
Nautical Twilight 7:05 AM CET 6:37 PM CET
Astronomical Twilight 6:32 AM CET 7:10 PM CET
Moon 4:35 AM CET (12/29) 2:58 PM CET (12/29)
Length of Visible Light 10h 24m
Length of Day
9h 24m
Waning Crescent, 13% of the Moon is Illuminated
Dec 29
Waning Crescent
Jan 1
New
Jan 8
First Quarter
Jan 16
Full
Jan 24
Last Quarter

Hourly Weather History & Observations

Time (CET) Temp. Dew Point Humidity Pressure Visibility Wind Dir Wind Speed Gust Speed Precip Events Conditions
12:00 AM 52 °F 40 °F 54% 30.09 in - NW 4.6 mph - -  
12:00 AM 51.8 °F 41.0 °F 67% 30.06 in 6.2 mi Variable 2.3 mph - N/A   Partly Cloudy
12:30 AM 51.8 °F 41.0 °F 67% 30.06 in 6.2 mi Variable 1.2 mph - N/A   Partly Cloudy
1:00 AM 48 °F 41 °F 68% 30.10 in 16 mi Calm Calm - -   Scattered Clouds
1:00 AM 48.2 °F 41.0 °F 76% 30.09 in 6.2 mi Calm Calm - N/A   Partly Cloudy
1:30 AM 46.4 °F 41.0 °F 81% 30.09 in 6.2 mi Calm Calm - N/A   Partly Cloudy
2:00 AM 44 °F 40 °F 81% 30.11 in - Calm Calm - -  
2:00 AM 44.6 °F 39.2 °F 81% 30.09 in 6.2 mi Variable 1.2 mph - N/A   Partly Cloudy
2:30 AM 42.8 °F 39.2 °F 87% 30.09 in 6.2 mi Variable 1.2 mph - N/A   Partly Cloudy
3:00 AM 43 °F 39 °F 82% 30.12 in - North 1.2 mph - -  
3:00 AM 42.8 °F 39.2 °F 87% 30.09 in 6.2 mi Calm Calm - N/A   Partly Cloudy
3:30 AM 44.6 °F 41.0 °F 87% 30.12 in 6.2 mi Variable 1.2 mph - N/A   Partly Cloudy
4:00 AM 43 °F 39 °F 79% 30.15 in 12 mi East 1.2 mph - -   Scattered Clouds
4:00 AM 42.8 °F 37.4 °F 81% 30.12 in 6.2 mi Calm Calm - N/A   Partly Cloudy
4:30 AM 44.6 °F 39.2 °F 81% 30.12 in 6.2 mi SSE 1.2 mph - N/A   Partly Cloudy
5:00 AM 44 °F 39 °F 77% 30.15 in - East 2.3 mph - -  
5:00 AM 44.6 °F 39.2 °F 81% 30.12 in 6.2 mi Variable 2.3 mph - N/A   Partly Cloudy
5:30 AM 46.4 °F 41.0 °F 81% 30.15 in 6.2 mi SSW 2.3 mph - N/A   Partly Cloudy
6:00 AM 45 °F 40 °F 75% 30.17 in - WNW 2.3 mph - -  
6:00 AM 44.6 °F 39.2 °F 81% 30.15 in 6.2 mi Calm Calm - N/A   Partly Cloudy
6:30 AM 42.8 °F 39.2 °F 87% 30.15 in 6.2 mi Calm Calm - N/A   Partly Cloudy
7:00 AM 42 °F 39 °F 83% 30.19 in 16 mi Calm Calm - -   Scattered Clouds
7:00 AM 41.0 °F 39.2 °F 93% 30.18 in 6.2 mi Variable 1.2 mph - N/A   Partly Cloudy
7:30 AM 41.0 °F 39.2 °F 93% 30.18 in 6.2 mi SE 1.2 mph - N/A   Partly Cloudy
8:00 AM 41 °F 39 °F 90% 30.22 in - East 1.2 mph - -  
8:00 AM 41.0 °F 39.2 °F 93% 30.21 in 6.2 mi Calm Calm - N/A   Partly Cloudy
8:30 AM 41.0 °F 39.2 °F 93% 30.21 in 6.2 mi Calm Calm - N/A   Partly Cloudy
9:00 AM 42 °F 40 °F 88% 30.25 in - Calm Calm - -  
9:00 AM 41.0 °F 39.2 °F 93% 30.21 in 6.2 mi East 2.3 mph - N/A   Partly Cloudy
9:30 AM 42.8 °F 41.0 °F 93% 30.24 in 6.2 mi SE 2.3 mph - N/A   Partly Cloudy
10:00 AM 45 °F 42 °F 86% 30.27 in 16 mi Calm Calm - -   Scattered Clouds
10:00 AM 44.6 °F 42.8 °F 93% 30.24 in 6.2 mi Calm Calm - N/A   Partly Cloudy
10:30 AM 46.4 °F 42.8 °F 87% 30.27 in 6.2 mi Calm Calm - N/A   Partly Cloudy
11:00 AM 50 °F 45 °F 78% 30.28 in - West 1.2 mph - -  
11:00 AM 50.0 °F 46.4 °F 87% 30.27 in 6.2 mi Calm Calm - N/A   Partly Cloudy
11:30 AM 53.6 °F 44.6 °F 72% 30.27 in 6.2 mi Calm Calm - N/A   Partly Cloudy
12:00 PM 56 °F 42 °F 47% 30.28 in - NW 10.4 mph - -  
12:00 PM 55.4 °F 42.8 °F 63% 30.27 in 6.2 mi NW 12.7 mph - N/A   Partly Cloudy
12:30 PM 55.4 °F 42.8 °F 63% 30.27 in 6.2 mi NW 15.0 mph - N/A   Partly Cloudy
1:00 PM 56 °F 42 °F 48% 30.28 in 2 mi NW 6.9 mph - -   Scattered Clouds
1:00 PM 55.4 °F 42.8 °F 63% 30.27 in 6.2 mi NW 11.5 mph - N/A   Partly Cloudy
1:30 PM 55.4 °F 41.0 °F 58% 30.27 in 6.2 mi NW 13.8 mph - N/A   Partly Cloudy
2:00 PM 57 °F 38 °F 38% 30.26 in - NW 12.7 mph - -  
2:00 PM 55.4 °F 39.2 °F 54% 30.24 in 6.2 mi NNW 15.0 mph - N/A   Partly Cloudy
2:30 PM 55.4 °F 41.0 °F 58% 30.24 in 6.2 mi NW 12.7 mph 25.3 mph N/A   Partly Cloudy
3:00 PM 56 °F 38 °F 40% 30.27 in - NNW 11.5 mph - -  
3:00 PM 55.4 °F 39.2 °F 54% 30.27 in 6.2 mi NW 13.8 mph - N/A   Partly Cloudy
3:30 PM 55.4 °F 39.2 °F 54% 30.27 in 6.2 mi NW 11.5 mph - N/A   Partly Cloudy
4:00 PM 55 °F 39 °F 43% 30.29 in 19 mi NNW 10.4 mph - -   Scattered Clouds
4:00 PM 53.6 °F 39.2 °F 58% 30.27 in 6.2 mi NW 11.5 mph - N/A   Partly Cloudy
4:30 PM 53.6 °F 39.2 °F 58% 30.27 in 6.2 mi NW 13.8 mph - N/A   Partly Cloudy
5:00 PM 53 °F 38 °F 46% 30.31 in - NW 4.6 mph - -  
5:00 PM 53.6 °F 39.2 °F 58% 30.30 in 6.2 mi NNW 8.1 mph - N/A   Partly Cloudy
5:30 PM 51.8 °F 39.2 °F 62% 30.30 in 6.2 mi NNW 6.9 mph - N/A   Partly Cloudy
6:00 PM 51 °F 38 °F 50% 30.31 in - NW 2.3 mph - -  
6:00 PM 51.8 °F 39.2 °F 62% 30.30 in 6.2 mi NW 3.5 mph - N/A   Partly Cloudy
6:30 PM 50.0 °F 39.2 °F 66% 30.30 in 6.2 mi Variable 2.3 mph - N/A   Partly Cloudy
7:00 PM 48 °F 38 °F 59% 30.33 in 2 mi Calm Calm - -   Scattered Clouds
7:00 PM 48.2 °F 37.4 °F 66% 30.33 in 6.2 mi Variable 1.2 mph - N/A   Partly Cloudy
7:30 PM 48.2 °F 39.2 °F 71% 30.33 in 6.2 mi WNW 3.5 mph - N/A   Partly Cloudy
8:00 PM 44 °F 37 °F 70% 30.35 in - NE 2.3 mph - -  
8:00 PM 44.6 °F 37.4 °F 76% 30.33 in 6.2 mi Variable 1.2 mph - N/A   Partly Cloudy
8:30 PM 42.8 °F 37.4 °F 81% 30.33 in 6.2 mi Calm Calm - N/A   Partly Cloudy
9:00 PM 40 °F 36 °F 82% 30.36 in - East 2.3 mph - -  
9:00 PM 41.0 °F 37.4 °F 87% 30.33 in 6.2 mi Calm Calm - N/A   Partly Cloudy
9:30 PM 39.2 °F 37.4 °F 93% 30.33 in 6.2 mi Calm Calm - N/A   Partly Cloudy
10:00 PM 39 °F 36 °F 84% 30.37 in 14 mi East 3.5 mph - -   Scattered Clouds
10:00 PM 39.2 °F 35.6 °F 87% 30.36 in 6.2 mi Variable 1.2 mph - N/A   Partly Cloudy
10:30 PM 39.2 °F 35.6 °F 87% 30.36 in 6.2 mi Variable 2.3 mph - N/A   Partly Cloudy
11:00 PM 39 °F 36 °F 85% 30.38 in - ENE 2.3 mph - -  
11:00 PM 39.2 °F 35.6 °F 87% 30.36 in 6.2 mi Variable 1.2 mph - N/A   Partly Cloudy
11:30 PM 37.4 °F 33.8 °F 87% 30.36 in 6.2 mi ENE 1.2 mph - N/A   Partly Cloudy